Location: Unspecified
(0.0000°N, 0.0000°E)
Time: 00:17:06
(UTC+00:00)

deb OV3-4 - Visible Passes

Search period start: 13 June 2025 00:00
Search period end: 23 June 2025 00:00
Orbit: 578 x 4215 km, 40.6° (Epoch: 09 June)

Date Brightness Start Highest point End Pass type
(mag) Time Alt. Az. Time Alt. Az. Time Alt. Az.
13 Jun ? 19:20:42 10° NNW 19:41:18 29° NNE 19:55:24 15° ENE visible
13 Jun ? 21:49:02 10° NW 22:11:41 68° N 22:11:41 68° N visible
14 Jun ? 00:23:25 10° WNW 00:27:59 18° WNW 00:27:59 18° WNW visible
14 Jun ? 17:57:47 10° NNW 18:12:45 18° NNE 18:27:45 10° ENE visible
14 Jun ? 20:24:33 10° NNW 20:49:01 47° NE 20:54:41 41° ENE visible
14 Jun ? 22:55:11 10° NW 23:11:00 47° WNW 23:11:00 47° WNW visible
15 Jun ? 19:01:09 10° NNW 19:22:20 31° NNE 19:37:44 15° E visible
15 Jun ? 21:29:13 10° NW 21:54:02 76° NNE 21:54:02 76° NNE visible
16 Jun ? 00:04:03 10° WNW 00:10:21 20° W 00:10:21 20° W visible
16 Jun ? 20:04:50 10° NNW 20:29:48 51° NE 20:37:08 41° E visible
16 Jun ? 22:35:29 10° NW 22:53:27 51° W 22:53:27 51° W visible
17 Jun ? 18:41:41 10° NNW 19:03:16 33° NE 19:20:17 14° E visible
17 Jun ? 21:09:28 10° NW 21:35:43 82° NE 21:36:37 81° ENE visible
17 Jun ? 23:44:44 10° WNW 23:52:56 22° W 23:52:56 22° W visible
18 Jun ? 19:45:12 10° NNW 20:10:29 55° NE 20:19:48 39° E visible
18 Jun ? 22:15:51 10° NW 22:36:07 55° W 22:36:07 55° W visible
19 Jun ? 18:22:17 10° NNW 18:44:06 35° NE 19:03:02 12° E visible
19 Jun ? 20:49:48 10° NW 21:16:18 86° NE 21:19:22 74° ESE visible
19 Jun ? 23:25:28 10° WNW 23:35:42 25° W 23:35:42 25° W visible
20 Jun ? 19:25:39 10° NNW 19:51:03 59° NE 20:02:39 35° ESE visible
20 Jun ? 21:56:18 10° WNW 22:18:59 57° WSW 22:18:59 57° WSW visible
21 Jun ? 18:02:58 10° NNW 18:24:50 38° NE 18:45:34 10° E visible
21 Jun ? 20:30:13 10° NW 20:56:48 89° SW 21:02:19 63° SE visible
21 Jun ? 23:06:15 10° WNW 23:18:40 26° WSW 23:18:40 26° WSW visible
22 Jun ? 19:06:12 10° NW 19:31:32 62° NE 19:45:41 30° ESE visible
22 Jun ? 21:36:49 10° WNW 22:01:32 55° SW 22:02:02 55° SW visible
